Regional Weather Roundup
Issued by NWS

Home | Current Version | Previous Version | Text Only | Print | Product List | Glossary Off
Versions: 1 2 3 4 5 6 7 8 9 10 11 12 13 14 15 16 17 18 19 20 21 22 23 24 25 26 27 28 29 30 31 32 33 34 35 36 37 38 39 40 41 42 43 44 45 46 47 48 49 50

821
ASUS45 KTFX 280310
RWRMT
MONTANA REGIONAL WEATHER ROUNDUP
NATIONAL WEATHER SERVICE GREAT FALLS MT
900 PM MDT MON MAR 27 2017

NOTE: "FAIR" INDICATES FEW OR NO CLOUDS BELOW 12000 FEET WITH NO
SIGNIFICANT WEATHER AND/OR OBSTRUCTIONS TO VISIBILITY.

MTZ001>007-043-280400-
WEST OF THE DIVIDE

CITY           SKY/WX    TMP DP  RH WIND       PRES   REMARKS
KALISPELL      MOCLDY    41  35  79 S10       30.05R
MISSOULA       MOCLDY    39  35  86 SW3       30.11R
BUTTE          CLOUDY    37  26  64 N12       30.03R WCI  29
MULLAN PASS    SNOW      29  28  96 CALM      30.06R VSB 1/2
ANACONDA         N/A     37  25  60 NW5       30.05R
DEER LODGE       N/A     37  28  70 NW14      30.09R WCI  29
EUREKA           N/A     45  28  53 SE7       30.04R
HAMILTON         N/A     43  25  49 W3        30.10R
PLAINS           N/A     43  31  63 CALM      30.10R
RONAN            N/A     40  31  70 CALM      30.13R
$$

MTZ008-052>055-280400-
SOUTHWEST MONTANA

CITY           SKY/WX    TMP DP  RH WIND       PRES   REMARKS
BOZEMAN        CLOUDY    43  36  76 SW6       30.02R
DILLON         CLOUDY    37  32  82 E7        30.01R WCI  32
W YELLOWSTONE  CLOUDY    32  30  93 CALM      29.99R
ENNIS          CLOUDY    36  34  93 NW8       30.07R WCI  29
THREE FORKS      N/A     41   8  25 CALM      30.01R
TWIN BRIDGES     N/A     42  24  49 N15       29.99
$$

MTZ009-010-012-014-046-048-049-054-280400-
EAST SLOPES AND CENTRAL MONTANA

CITY           SKY/WX    TMP DP  RH WIND       PRES   REMARKS
CUT BANK       CLOUDY    41  30  65 W17       29.96R
GREAT FALLS    CLOUDY    43  30  60 SW12      29.98R
MALMSTROM AFB  CLOUDY    48  32  53 W8        29.97R
HELENA         CLOUDY    45  30  55 W15       30.02R
AUGUSTA        MOCLDY    39  26  59 W8        29.98R
BOWMANS CRNR     N/A     38  26  62 W9        29.98R WCI  31
CHOTEAU          N/A     45  28  53 W9        30.00R
CONRAD           N/A     46  33  60 SW7       29.99R
FAIRFIELD      MOCLDY    42  32  67 NW5       29.97R
POWER          MOCLDY    39  31  71 W7        29.97R
RAYNESFORD     MOCLDY    43  34  70 SW10      29.98R
$$

MTZ011-013-016-021-045-047-050-051-280400-
NORTH CENTRAL MONTANA

CITY           SKY/WX    TMP DP  RH WIND       PRES   REMARKS
HAVRE          PTCLDY    46  36  68 N9        29.93R
LEWISTOWN      CLOUDY    42  28  57 W5        29.95R
N BAR RANCH    MOCLDY    41  32  70 W6        29.97R
CHINOOK          N/A     45  36  70 E7        29.93R
DENTON         MOCLDY    47  30  52 NW8       29.91R
FORT BENTON      N/A     46  32  57 MISG      29.96R
GEYSER         MOCLDY    41  33  71 SW9       29.96R
GRASS RANGE    MOCLDY    44  35  68 W8        29.91R
JUDITH GAP     MOCLDY    41  29  62 N12       29.95R
STANFORD       MOCLDY    42  32  69 W8        29.96R
WINIFRED       MOCLDY    46  28  50 W6        29.93R
$$

MTZ017>020-022>027-061-062-280400-
NORTHEAST MONTANA

CITY           SKY/WX    TMP DP  RH WIND       PRES   REMARKS
GLASGOW        CLOUDY    45  34  65 E13       29.93R
JORDAN           N/A     46  33  60 N9        29.91R
SIDNEY         CLOUDY    50  39  66 NE8       29.95R
WOLF POINT     CLOUDY    44  37  76 NE8       29.95R
MALTA          CLEAR     43  37  81 E6        29.94R
PLENTYWOOD       N/A     41  37  87 NE10      29.99R
POPLAR           N/A     46  39  76 NE10      29.95R
SCOBEY           N/A     44  32  63 NE6       29.96R
$$

MTZ028>42-056>058-280400-
SOUTHCENTRAL AND SOUTHEAST MONTANA

CITY           SKY/WX    TMP DP  RH WIND       PRES   REMARKS
BAKER          CLOUDY    50  33  52 E7        29.92R
BILLINGS       CLOUDY    52  33  48 N10       29.91R
LIVINGSTON     LGT RAIN  40  36  86 W7        29.99R
MILES CITY     CLOUDY    51  36  56 NE7       29.88R
BIG TIMBER     CLOUDY    43  36  75 SW13      29.98R
EKALAKA          N/A     50  30  46 SE7       29.91R
FORSYTH          N/A     52  37  58 SE3       29.89R
HARLOWTON      LGT RAIN  43  35  72 W24G32    29.96R
LAUREL           N/A     51  29  43 CALM      29.92R
$$

REGIONAL REPORTS...DAKOTAS

CITY           SKY/WX    TMP DP  RH WIND       PRES   REMARKS
WILLISTON      LGT RAIN  45  37  73 NE14      30.00R
MINOT          FOG       36  35  96 E7        30.03R VSB 3/4 WCI  30
DICKINSON      CLEAR     43  35  73 NE10      29.92R
BEACH            N/A    N/A N/A N/A MISG        N/A
TIOGA          CLOUDY    34  34 100 NE15      30.00F FOG     WCI  24
WATFORD CITY     N/A     41  36  81 NE8       29.99R
BISMARCK       CLEAR     46  34  62 NE5       29.98R
GRAND FORKS    FOG       37  37 100 N8        30.05S VSB 1   WCI  31
FARGO          CLEAR     40  39  97 N10       30.02R FOG
BUFFALO SD       N/A     46  35  65 SE13      29.87R
RAPID CITY     PTCLDY    49  35  58 E14       29.90R
$$

REGIONAL REPORTS...WYOMING/IDAHO/WASHINGTON

CITY           SKY/WX    TMP DP  RH WIND       PRES   REMARKS
GILLETTE         N/A    N/A N/A N/A MISG      29.88R
SHERIDAN       CLOUDY    50  36  58 S7        29.90R
BUFFALO WY     MOCLDY    45  35  68 NW12      29.92S
CODY           CLOUDY    45  34  65 NW10      29.94R
YELLOWSTONE LA   N/A     28  27  96 VRB6      30.00R WCI  22
IDAHO FALLS    RAIN      40  37  89 VRB5      30.00R FOG
SALMON         MOCLDY    43  25  49 NW6       30.06R
BOISE          CLEAR     47  31  53 NW10      30.12R
SPOKANE        MOCLDY    41  38  89 S6        30.10R
$$

REGIONAL REPORTS...ALBERTA

CITY           SKY/WX    TMP DP  RH WIND       PRES   REMARKS
EDMONTON       MOCLDY    32  28  86 SE6       29.92R WCI  26
CALGARY        MOCLDY    41  30  65 S3        29.89S
LETHBRIDGE     MOCLDY    45  27  49 SW15      29.90R
MEDICINE HAT   MOCLDY    52  28  40 SW8       29.89R
WATERTON GATE    N/A     39  28  65 SW14G23     N/A  WCI  31
CARDSTON         N/A     41  28  60 SW6         N/A
MILK RIVER       N/A     45  30  57 W13         N/A
$$

REGIONAL REPORTS...SASKATCHEWAN

CITY           SKY/WX    TMP DP  RH WIND       PRES   REMARKS
SWIFT CURRENT  CLOUDY    39  34  81 SE10      29.95R
REGINA         CLOUDY    36  36 100 E15       30.04R WCI  26
SASKATOON      CLOUDY    37  32  81 E10       30.05R WCI  30
VAL MARIE        N/A     39  32  75 E7          N/A
ROCKGLEN         N/A     41  32  70 E2          N/A
$$




USA.gov is the U.S. government's official web portal to all federal, state and local government web resources and services.